Location: Carrington
(40.8686°N, 81.5060°W)
Time: 05:18:58
(UTC+00:00)

ISS - Visible Passes

Search period start: 14 October 2024 00:00
Search period end: 24 October 2024 00:00
Orbit: 411 x 423 km, 51.6° (Epoch: 13 October)

Date Brightness Start Highest point End Pass type
(mag) Time Alt. Az. Time Alt. Az. Time Alt. Az.
16 Oct -1.4 10:32:36 10° S 10:35:17 23° SE 10:37:59 10° E visible
17 Oct -0.9 09:45:27 10° SSE 09:47:07 13° SE 09:48:47 10° E visible
18 Oct -3.5 10:32:30 15° SW 10:35:05 68° SE 10:38:24 10° ENE visible
19 Oct -2.6 09:46:41 37° SE 09:46:43 37° SE 09:49:49 10° ENE visible
20 Oct -0.3 09:00:39 12° E 09:00:39 12° E 09:00:58 10° E visible
20 Oct -3.3 10:33:34 28° W 10:34:54 44° NNW 10:38:07 10° NE visible
21 Oct -2.6 09:47:22 40° NE 09:47:22 40° NE 09:49:39 10° NE visible
22 Oct -0.2 09:01:01 10° ENE 09:01:01 10° ENE 09:01:03 10° ENE visible
22 Oct -2.3 10:33:55 21° NW 10:34:43 23° NNW 10:37:27 10° NNE visible
23 Oct -1.7 09:47:26 21° NNE 09:47:26 21° NNE 09:48:58 10° NE visible
